This demonstration page uses our WeatherBlox Daily Observations layout. Learn more.

38.88101, -77.10428

Hourly Observations for November 18, 2016

Temp ( °F °C ) Dew Point ( °F °C ) Humidity (%) Winds ( mph kmh ) Pressure ( in mb ) Visibility ( mi km ) Precip ( " mm )
12:52 am 00:52 Clear 46 7.8 40 4.4 79 79 SSW 3 6 30.15 1021 10 16.09344 0 0
1:52 am 01:52 Clear 45 7.2 41 5 86 86 Calm 30.18 1022 10 16.09344 0 0
2:52 am 02:52 Clear 45 7.2 40 4.4 83 83 Calm 30.18 1022 10 16.09344 0 0
3:52 am 03:52 Clear 45 7.2 40 4.4 83 83 Calm 30.18 1022 10 16.09344 0 0
4:52 am 04:52 Clear 44 6.7 40 4.4 85 85 Calm 30.18 1022 10 16.09344 0 0
5:52 am 05:52 Clear 43 6.1 40 4.4 89 89 Calm 30.18 1022 10 16.09344 0 0
6:52 am 06:52 Clear 43 6.1 38 3.3 82 82 N 7 11 30.21 1023 10 16.09344 0 0
7:52 am 07:52 Sunny 47 8.3 41 5 80 80 Calm 30.21 1023 10 16.09344 0 0
8:52 am 08:52 Sunny 49 9.4 43 6.1 80 80 SE 3 6 30.21 1023 10 16.09344 0 0
9:52 am 09:52 Sunny 54 12.2 44 6.7 69 69 S 5 7 30.21 1023 10 16.09344 0 0
10:52 am 10:52 Sunny 58 14.4 42 5.6 56 56 S 7 11 30.21 1023 10 16.09344 0 0
11:52 am 11:52 Sunny 62 16.7 43 6.1 50 50 SSE 7 11 30.15 1021 10 16.09344 0 0
12:52 pm 12:52 Mostly Sunny 67 19.4 42 5.6 41 41 SSE 5 7 30.12 1020 10 16.09344 0 0
1:52 pm 13:52 Mostly Sunny 68 20 43 6.1 40 40 S 5 7 30.12 1020 10 16.09344 0 0
2:52 pm 14:52 Mostly Sunny 69 20.6 42 5.6 38 38 S 3 6 30.09 1019 10 16.09344 0 0
3:52 pm 15:52 Mostly Sunny 69 20.6 43 6.1 39 39 S 6 9 30.09 1019 10 16.09344 0 0
4:52 pm 16:52 Mostly Sunny 66 18.9 44 6.7 45 45 S 7 11 30.09 1019 10 16.09344 0 0
5:52 pm 17:52 Clear 61 16.1 44 6.7 54 54 SSW 6 9 30.09 1019 10 16.09344 0 0
6:52 pm 18:52 Clear 57 13.9 49 9.4 74 74 S 6 9 30.09 1019 10 16.09344 0 0
7:52 pm 19:52 Clear 56 13.3 46 7.8 70 70 S 3 6 30.09 1019 10 16.09344 0 0
8:52 pm 20:52 Clear 55 12.8 46 7.8 72 72 S 5 7 30.09 1019 10 16.09344 0 0
9:52 pm 21:52 Clear 53 11.7 47 8.3 80 80 SSW 5 7 30.09 1019 10 16.09344 0 0
10:52 pm 22:52 Clear 53 11.7 47 8.3 80 80 SSW 5 7 30.06 1018 10 16.09344 0 0
11:52 pm 23:52 Clear 51 10.6 46 7.8 83 83 SSW 3 6 30.06 1018 10 16.09344 0 0

Powered by AerisWeather